Orbital Elements at Epoch 2459000.5 (2020-May-31.0) TDB
Reference: JPL 15 (heliocentric ecliptic J2000)
Element | Value | Uncertainty (1-sigma) | Units |
e | .2578768247912854 | 4.1451e-08 | |
a | 2.585725558003735 | 9.9032e-09 | au |
q | 1.918926861324057 | 1.0367e-07 | au |
i | 4.684755138992953 | 4.2552e-06 | deg |
node | 174.7454557895715 | 7.2803e-05 | deg |
peri | 179.8973077462993 | 7.4014e-05 | deg |
M | 359.6375851747756 | 1.4247e-05 | deg |
tp | 2459002.028887476519 (2020-Jun-01.52888748) | 6.0107e-05 | TDB |
period | 1518.700266210345 4.16 | 8.7249e-06 2.389e-08 | d yr |
n | .2370447994312387 | 1.3618e-09 | deg/d |
Q | 3.252524254683413 | 1.2457e-08 | au |
|
| | Orbit Determination Parameters
Additional Information
|